Tracking 29892 objects as of 21-Nov-2024
HD Live streaming from Space Station
objects crossing your sky now

FENGYUN 1C DEB

Track FENGYUN 1C DEB now!
10-day predictions


NORAD ID: 31639
Int'l Code: 1999-025CAV
Perigee: 834.7 km
Apogee: 1,072.7 km
Inclination: 98.7 °
Period: 104.0 minutes
Semi major axis: 7324 km
RCS: 0.0139 m2 (small)
Launch date: May 10, 1999
Source: People's Republic of China (PRC)
Launch site: Taiyaun Space Center, China (TSC)

Note: This is SATELLITE DEBRIS
Your satellite tracking list
Your tracking list is empty




NASA's NSSDC Master Catalog

Two Line Element Set (TLE):
1 31639U 99025CAV 24325.41759274  .00000247  00000-0  22827-3 0  9999
2 31639  98.6877 292.5767 0162475 118.4107  33.0563 13.84905679883263
Source of the keplerian elements: AFSPC